STARLINK-30219 (57507 NORAD) Tracking and Keplerian Element Data

This shows tracking and keplerian element data for the satellite.

Feedback or suggestion? Click here.




ElementValue
Catalog57507
NameSTARLINK-30219
Epoch Orbit438
Epoch Day238.91667824
Epoch Year2023
RAAN12.1912
Inclination43.0005
Eccentricity8.73E-05
Argument of Perigee268.7569
Mean Anonmoly239.065
Mean Motion15.51225634
Decay Rate-0.01686143
L11 57507U 23113N 23238.91667824 -.01686143 00000+0 -31408-1 0 9992
L22 57507 43.0005 12.1912 0000873 268.7569 239.0650 15.51225634 4389



Live tracking and technical data element details for STARLINK-30219 (NORAD 57507). STARLINK-30219 can be tracked NOW for your location showing map with azimuth and elevation plus other details from your city location.







IsCatalogInMostPopularTable: catalog: 57507, numindb: 7
Update: records affected: 1



GetName: 57507 STARLINK-30219

Hit Count: updated at: Tue, 26 Sep 2023 13:41:53 GMT